GW1714 Weather Reports


time (UTC)temp
C
wind
direction
speed
KPH
gust
KPH
rain 1hr
cm
rain 24hr
cm
rain mn
cm
humidity
%
barometer
mb
20260505121923 17 15 3.2 4.8 0.00 0.00 0.00 60 1032.6
20260505121421 17 16 4.8 8.0 0.00 0.00 0.00 59 1032.4
20260505120916 16 9 0.0 4.8 0.00 0.00 0.00 61 1032.6
20260505120413 16 174 0.0 3.2 0.00 0.00 0.00 62 1032.5
20260505115912 16 334 0.0 4.8 0.00 0.00 0.00 58 1032.3
20260505115409 15 90 0.0 3.2 0.00 0.00 0.00 61 1032.3
20260505114907 17 165 1.6 4.8 0.00 0.00 0.00 60 1032.3
20260505114403 17 342 1.6 4.8 0.00 0.00 0.00 54 1032.4
20260505113859 17 15 3.2 4.8 0.00 0.00 0.00 55 1032.2
20260505113356 17 357 3.2 3.2 0.00 0.00 0.00 55 1032.1
20260505112851 17 353 3.2 6.4 0.00 0.00 0.00 54 1032.2
20260505112350 17 33 0.0 4.8 0.00 0.00 0.00 53 1031.7
20260505111845 17 0 0.0 3.2 0.00 0.00 0.00 54 1031.9
20260505111340 17 40 4.8 8.0 0.00 0.00 0.00 54 1031.8
20260505110836 17 29 1.6 4.8 0.00 0.00 0.00 54 1031.5
20260505110334 17 25 8.0 8.0 0.00 0.00 0.00 54 1031.6
20260505101809 17 14 3.2 3.2 0.00 0.00 0.00 52 1031.7
20260505101305 17 349 0.0 3.2 0.00 0.00 0.00 51 1031.7
20260505100801 17 349 3.2 4.8 0.00 0.00 0.00 50 1031.7
20260505100257 17 0 3.2 4.8 0.00 0.00 0.00 49 1031.6
20260505095753 18 20 4.8 6.4 0.00 0.00 0.00 49 1031.7
20260505095251 18 353 1.6 8.0 0.00 0.00 0.00 49 1031.7
20260505094746 18 0 4.8 4.8 0.00 0.00 0.00 48 1031.6
20260505094243 18 18 4.8 11.3 0.00 0.00 0.00 48 1031.8
20260505093739 18 337 3.2 11.3 0.00 0.00 0.00 48 1031.7
20260505093237 18 30 3.2 9.7 0.00 0.00 0.00 48 1031.6
20260505092733 18 357 11.3 11.3 0.00 0.00 0.00 48 1031.6
20260505092232 18 332 3.2 6.4 0.00 0.00 0.00 48 1031.9
20260505091729 18 11 6.4 11.3 0.00 0.00 0.00 48 1031.6
20260505091228 18 358 6.4 11.3 0.00 0.00 0.00 48 1031.4
20260505090725 18 37 6.4 9.7 0.00 0.00 0.00 49 1031.3
20260505090223 18 346 4.8 22.5 0.00 0.00 0.00 48 1031.6
20260505085720 18 353 8.0 11.3 0.00 0.00 0.00 49 1031.4
20260505085218 18 336 6.4 11.3 0.00 0.00 0.00 49 1031.4
20260505084715 18 345 8.0 9.7 0.00 0.00 0.00 49 1031.5
20260505084214 18 0 19.3 19.3 0.00 0.00 0.00 49 1031.2
20260505083710 18 359 6.4 22.5 0.00 0.00 0.00 48 1031.4
20260505083207 18 345 12.9 12.9 0.00 0.00 0.00 49 1031.2
20260505082703 18 2 16.1 17.7 0.00 0.00 0.00 49 1031.3
20260505082201 18 11 8.0 16.1 0.00 0.00 0.00 50 1031.3
20260505081656 18 346 9.7 14.5 0.00 0.00 0.00 50 1031.3
20260505081154 17 9 8.0 11.3 0.00 0.00 0.00 51 1031.0
20260505080651 17 359 8.0 8.0 0.00 0.00 0.00 51 1031.2
20260505080146 18 6 6.4 9.7 0.00 0.00 0.00 52 1031.2
20260505075642 17 2 6.4 8.0 0.00 0.00 0.00 52 1031.3
20260505075139 17 14 6.4 8.0 0.00 0.00 0.00 53 1031.2
20260505074636 17 5 8.0 8.0 0.00 0.00 0.00 54 1031.2
20260505074133 17 17 8.0 9.7 0.00 0.00 0.00 53 1031.0
20260505073631 17 18 4.8 9.7 0.00 0.00 0.00 53 1031.4
20260505073129 17 42 4.8 9.7 0.00 0.00 0.00 54 1031.2
20260505072624 17 42 4.8 9.7 0.00 0.00 0.00 54 1031.2
20260505072121 17 48 9.7 11.3 0.00 0.00 0.00 54 1031.3
20260505071617 17 0 3.2 6.4 0.00 0.00 0.00 55 1031.5
20260505071115 17 0 0.0 4.8 0.00 0.00 0.00 56 1031.4
20260505070612 17 355 3.2 6.4 0.00 0.00 0.00 55 1031.4
20260505070108 17 24 3.2 9.7 0.00 0.00 0.00 55 1031.4
20260505065604 17 340 1.6 4.8 0.00 0.00 0.00 56 1031.4
20260505065101 17 110 3.2 8.0 0.00 0.00 0.00 54 1031.2
20260505064558 18 345 3.2 9.7 0.00 0.00 0.00 53 1031.3
20260505064056 17 123 8.0 8.0 0.00 0.00 0.00 56 1031.3
20260505063553 17 180 0.0 6.4 0.00 0.00 0.00 55 1031.3
20260505063049 17 152 0.0 4.8 0.00 0.00 0.00 59 1031.4
20260505062546 18 168 3.2 4.8 0.00 0.00 0.00 57 1031.4
20260505062043 19 16 4.8 8.0 0.00 0.00 0.00 50 1031.4
20260505061540 18 3 8.0 11.3 0.00 0.00 0.00 51 1031.1
20260505061038 19 327 4.8 14.5 0.00 0.00 0.00 51 1030.9
20260505060535 18 353 8.0 9.7 0.00 0.00 0.00 51 1031.0
20260505060032 19 343 6.4 9.7 0.00 0.00 0.00 51 1031.0
20260505055527 19 334 4.8 9.7 0.00 0.00 0.00 51 1031.0
20260505055024 19 354 9.7 12.9 0.00 0.00 0.00 51 1030.9
20260505054521 19 338 6.4 14.5 0.00 0.00 0.00 51 1031.0
20260505054020 20 338 6.4 14.5 0.00 0.00 0.00 51 1031.1
20260505053517 19 349 14.5 16.1 0.00 0.00 0.00 50 1031.0
20260505053013 20 344 8.0 19.3 0.00 0.00 0.00 50 1031.0
20260505052510 20 6 9.7 14.5 0.00 0.00 0.00 50 1031.1
20260505052008 20 348 9.7 12.9 0.00 0.00 0.00 50 1030.9
20260505051504 20 349 6.4 12.9 0.00 0.00 0.00 50 1030.8
20260505051003 20 344 6.4 12.9 0.00 0.00 0.00 50 1030.9
20260505050500 20 347 8.0 17.7 0.00 0.00 0.00 49 1030.9
20260505041428 19 3 11.3 11.3 0.00 0.00 0.00 52 1031.1
20260505040925 20 6 6.4 11.3 0.00 0.00 0.00 51 1030.8
20260505040423 20 348 4.8 8.0 0.00 0.00 0.00 51 1030.9
20260505035919 20 11 8.0 11.3 0.00 0.00 0.00 51 1031.0
20260505035415 20 0 8.0 11.3 0.00 0.00 0.00 50 1030.9
20260505034913 20 355 11.3 11.3 0.00 0.00 0.00 50 1030.9
20260505034409 20 350 8.0 11.3 0.00 0.00 0.00 51 1030.9
20260505033906 20 345 6.4 11.3 0.00 0.00 0.00 51 1030.6
20260505033403 19 3 9.7 9.7 0.00 0.00 0.00 51 1030.8
20260505032901 19 347 4.8 8.0 0.00 0.00 0.00 52 1030.8
20260505032357 20 7 8.0 9.7 0.00 0.00 0.00 51 1031.2
20260505031854 20 5 8.0 8.0 0.00 0.00 0.00 51 1031.2
20260505031351 20 351 6.4 9.7 0.00 0.00 0.00 51 1031.0
20260505030848 20 11 4.8 8.0 0.00 0.00 0.00 51 1031.0
20260505030344 20 335 4.8 8.0 0.00 0.00 0.00 51 1031.0
20260505025840 20 7 4.8 8.0 0.00 0.00 0.00 51 1031.1
20260505025337 19 357 3.2 8.0 0.00 0.00 0.00 52 1031.2
20260505024836 19 354 4.8 6.4 0.00 0.00 0.00 52 1031.2
20260505024333 19 340 4.8 8.0 0.00 0.00 0.00 52 1031.2
20260505023830 19 349 4.8 8.0 0.00 0.00 0.00 52 1031.2
20260505023327 19 0 6.4 8.0 0.00 0.00 0.00 52 1031.2
20260505022824 20 4 6.4 9.7 0.00 0.00 0.00 52 1031.3
20260505022321 19 9 6.4 11.3 0.00 0.00 0.00 52 1031.4
20260505021819 19 14 6.4 8.0 0.00 0.00 0.00 53 1031.4
20260505021315 19 12 4.8 6.4 0.00 0.00 0.00 54 1031.3
20260505020811 19 18 4.8 9.7 0.00 0.00 0.00 55 1031.3
20260505020307 19 23 3.2 6.4 0.00 0.00 0.00 54 1031.4
20260505015804 19 42 4.8 11.3 0.00 0.00 0.00 54 1031.2
20260505015301 19 32 6.4 9.7 0.00 0.00 0.00 54 1031.2
20260505014758 19 43 6.4 11.3 0.00 0.00 0.00 54 1031.3
20260505014255 19 18 3.2 11.3 0.00 0.00 0.00 54 1031.0
20260505013751 19 10 4.8 8.0 0.00 0.00 0.00 54 1031.1
20260505013249 20 56 4.8 8.0 0.00 0.00 0.00 54 1031.0
20260505012747 20 75 4.8 6.4 0.00 0.00 0.00 54 1031.1
20260505012244 20 42 4.8 6.4 0.00 0.00 0.00 54 1031.1
20260505011739 20 24 3.2 6.4 0.00 0.00 0.00 54 1031.1
20260505011237 20 21 3.2 6.4 0.00 0.00 0.00 54 1031.1
20260505010732 20 12 3.2 4.8 0.00 0.00 0.00 54 1030.9
20260505010229 20 50 4.8 6.4 0.00 0.00 0.00 54 1030.9
20260505005725 20 10 4.8 6.4 0.00 0.00 0.00 53 1030.8
20260505005223 20 40 6.4 8.0 0.00 0.00 0.00 53 1030.7
20260505004720 20 45 4.8 6.4 0.00 0.00 0.00 51 1031.0
20260505004216 21 42 4.8 8.0 0.00 0.00 0.00 51 1030.7
20260505003713 21 63 0.0 8.0 0.00 0.00 0.00 51 1030.9
20260505003211 21 346 4.8 6.4 0.00 0.00 0.00 51 1030.7
20260505002707 21 21 3.2 3.2 0.00 0.00 0.00 51 1030.6
20260505002205 21 53 3.2 4.8 0.00 0.00 0.00 50 1030.6
20260505001702 21 54 1.6 6.4 0.00 0.00 0.00 48 1030.5
20260505001159 21 22 6.4 8.0 0.00 0.00 0.00 46 1030.6
20260505000656 22 55 4.8 4.8 0.00 0.00 0.00 47 1030.6
20260505000154 22 12 4.8 11.3 0.00 0.00 0.00 46 1030.5
20260504235650 22 123 0.0 4.8 0.00 0.00 0.00 47 1030.5
20260504235146 22 96 0.0 6.4 0.00 0.00 0.00 47 1030.6
20260504234644 22 20 4.8 9.7 0.00 0.00 0.00 47 1030.3
20260504234141 22 32 9.7 9.7 0.00 0.00 0.00 47 1030.4
20260504233637 22 185 3.2 11.3 0.00 0.00 0.00 47 1030.3
20260504233133 22 159 0.0 12.9 0.00 0.00 0.00 48 1030.2
20260504232631 22 23 4.8 9.7 0.00 0.00 0.00 47 1030.3
20260504232128 23 110 4.8 6.4 0.00 0.00 0.00 47 1030.3
20260504231624 23 25 4.8 6.4 0.00 0.00 0.00 47 1030.2
20260504231121 23 51 4.8 8.0 0.00 0.00 0.00 47 1030.4
20260504230617 23 29 3.2 8.0 0.00 0.00 0.00 47 1030.3
20260504230116 23 0 4.8 16.1 0.00 0.00 0.00 46 1030.3
20260504225613 23 65 6.4 9.7 0.00 0.00 0.00 46 1030.2
20260504225110 23 159 4.8 9.7 0.00 0.00 0.00 45 1030.3
20260504224606 24 111 1.6 11.3 0.00 0.00 0.00 45 1030.4
20260504224103 23 25 4.8 8.0 0.00 0.00 0.00 45 1030.4
20260504223600 23 127 0.0 11.3 0.00 0.00 0.00 46 1030.3
20260504223056 24 105 0.0 8.0 0.00 0.00 0.00 45 1030.4
20260504222553 24 57 4.8 17.7 0.00 0.00 0.00 44 1030.4
20260504222050 25 83 0.0 9.7 0.00 0.00 0.00 43 1030.3
20260504221548 25 138 4.8 4.8 0.00 0.00 0.00 44 1030.6
20260504221044 25 90 3.2 8.0 0.00 0.00 0.00 43 1030.5
20260504220541 25 29 0.0 8.0 0.00 0.00 0.00 43 1030.3
20260504220038 25 194 1.6 9.7 0.00 0.00 0.00 44 1030.4
20260504215534 25 180 3.2 8.0 0.00 0.00 0.00 44 1030.1
20260504215032 25 164 0.0 11.3 0.00 0.00 0.00 43 1030.2
20260504214527 25 131 4.8 8.0 0.00 0.00 0.00 42 1030.2
20260504214024 26 34 6.4 6.4 0.00 0.00 0.00 42 1030.1
20260504213521 25 273 4.8 8.0 0.00 0.00 0.00 44 1030.2
20260504213018 25 201 3.2 4.8 0.00 0.00 0.00 45 1030.2
20260504212513 25 162 0.0 8.0 0.00 0.00 0.00 45 1030.5
20260504212011 25 157 0.0 6.4 0.00 0.00 0.00 46 1030.4
20260504211508 25 151 4.8 11.3 0.00 0.00 0.00 42 1030.2
20260504211005 26 270 3.2 6.4 0.00 0.00 0.00 40 1030.6
20260504210502 25 357 0.0 16.1 0.00 0.00 0.00 41 1030.4
20260504205958 25 195 1.6 4.8 0.00 0.00 0.00 43 1030.4
20260504205456 26 308 3.2 8.0 0.00 0.00 0.00 41 1030.6
20260504204954 25 180 4.8 8.0 0.00 0.00 0.00 43 1030.7
20260504204452 26 41 3.2 11.3 0.00 0.00 0.00 42 1030.6
20260504203951 25 190 4.8 4.8 0.00 0.00 0.00 41 1030.8
20260504203449 26 195 3.2 8.0 0.00 0.00 0.00 43 1030.8
20260504202944 26 170 4.8 4.8 0.00 0.00 0.00 43 1030.7
20260504202441 25 285 1.6 6.4 0.00 0.00 0.00 44 1030.4
20260504201938 25 339 4.8 11.3 0.00 0.00 0.00 41 1030.9
20260504201435 25 194 0.0 9.7 0.00 0.00 0.00 44 1030.9
20260504200933 25 183 3.2 8.0 0.00 0.00 0.00 43 1031.0
20260504200429 26 159 3.2 4.8 0.00 0.00 0.00 42 1031.2
20260504195926 26 40 3.2 9.7 0.00 0.00 0.00 40 1031.0
20260504195422 25 294 3.2 8.0 0.00 0.00 0.00 43 1031.0
20260504194919 25 203 0.0 8.0 0.00 0.00 0.00 46 1031.2
20260504194414 24 238 6.4 8.0 0.00 0.00 0.00 45 1031.3
20260504193911 25 109 0.0 9.7 0.00 0.00 0.00 47 1031.3
20260504193408 25 191 3.2 8.0 0.00 0.00 0.00 45 1031.4
20260504192907 25 163 8.0 9.7 0.00 0.00 0.00 47 1031.7
20260504192404 25 151 0.0 4.8 0.00 0.00 0.00 47 1031.5
20260504191902 25 110 4.8 6.4 0.00 0.00 0.00 46 1031.8
20260504191400 24 15 6.4 11.3 0.00 0.00 0.00 44 1031.8
20260504190855 23 169 3.2 8.0 0.00 0.00 0.00 51 1031.9
20260504190351 23 253 3.2 11.3 0.00 0.00 0.00 47 1031.8
20260504185848 23 27 9.7 9.7 0.00 0.00 0.00 49 1032.4
20260504185345 23 90 1.6 8.0 0.00 0.00 0.00 48 1032.2
20260504184841 23 214 0.0 6.4 0.00 0.00 0.00 48 1032.2
20260504184337 23 33 6.4 9.7 0.00 0.00 0.00 47 1032.4
20260504183833 23 180 1.6 4.8 0.00 0.00 0.00 51 1032.3
20260504183331 23 156 6.4 11.3 0.00 0.00 0.00 51 1032.5
20260504182828 23 157 6.4 8.0 0.00 0.00 0.00 51 1032.6
20260504182325 23 124 4.8 4.8 0.00 0.00 0.00 50 1032.5
20260504181822 23 203 3.2 6.4 0.00 0.00 0.00 50 1032.5
20260504181320 23 156 3.2 4.8 0.00 0.00 0.00 49 1032.5
20260504180819 22 153 6.4 8.0 0.00 0.00 0.00 50 1032.6
20260504180316 23 327 3.2 12.9 0.00 0.00 0.00 47 1032.8
20260504175814 22 2 4.8 9.7 0.00 0.00 0.00 48 1033.0
20260504175311 22 152 4.8 6.4 0.00 0.00 0.00 52 1032.8
20260504174809 22 164 6.4 8.0 0.00 0.00 0.00 51 1032.9
20260504174306 22 165 0.0 4.8 0.00 0.00 0.00 49 1033.0
20260504173803 22 213 4.8 8.0 0.00 0.00 0.00 50 1032.9
20260504173259 22 177 4.8 8.0 0.00 0.00 0.00 46 1033.1
20260504172756 22 341 3.2 6.4 0.00 0.00 0.00 48 1033.0
20260504172253 22 26 4.8 6.4 0.00 0.00 0.00 49 1033.1
20260504171749 22 29 3.2 9.7 0.00 0.00 0.00 50 1033.3
20260504171246 22 187 0.0 4.8 0.00 0.00 0.00 50 1033.2
20260504170743 22 248 3.2 6.4 0.00 0.00 0.00 48 1033.3
20260504170241 21 33 0.0 9.7 0.00 0.00 0.00 47 1033.3
20260504160159 20 0 3.2 6.4 0.00 0.00 0.00 49 1034.3
20260504151127 18 0 3.2 9.7 0.00 0.00 0.00 52 1035.1
20260504150624 18 29 8.0 14.5 0.00 0.00 0.00 53 1035.0
20260504150121 18 14 0.0 9.7 0.00 0.00 0.00 54 1035.1
20260504141049 13 148 0.0 0.0 0.00 0.00 0.00 69 1035.6
20260504140546 13 148 0.0 0.0 0.00 0.00 0.00 70 1035.6
20260504130505 11 165 0.0 0.0 0.00 0.00 0.00 73 1035.8